This is the latest recevied weather packets stored in our database for station/object AF1E. If no packets are shown the sender has not sent any weather packets the latest 10 day(s).
| Time | Temp. | Humidity | Pressure | Rain* | Wind** | Luminosity | Snow |
|---|---|---|---|---|---|---|---|
| 1777842316 | 18.89° C | 28% | 1014.2 hPa | 0 mm | - | - | - |
| 1777841716 | 19.44° C | 28% | 1014.3 hPa | 0 mm | - | - | - |
| 1777836316 | 20.56° C | 27% | 1015.5 hPa | 0 mm | - | - | - |
| 1777834516 | 19.44° C | 32% | 1016 hPa | 0 mm | - | - | - |
| 1777833936 | 19.44° C | 29% | 1016.1 hPa | 0 mm | - | - | - |
| 1777824917 | 16.11° C | 33% | 1018.1 hPa | 0 mm | - | - | - |
| 1777823136 | 15.56° C | 37% | 1018.4 hPa | 0 mm | - | - | - |
| 1777822536 | 16.11° C | 37% | 1018.4 hPa | 0 mm | - | - | - |
| 1777821316 | 15° C | 42% | 1018.5 hPa | 0 mm | - | - | - |
| 1777817756 | 12.78° C | 45% | 1018.4 hPa | 0 mm | - | - | - |
| 1777816516 | 12.22° C | 48% | 1018.3 hPa | 0 mm | - | - | - |
| 1777810516 | 7.22° C | 81% | 1018 hPa | 0 mm | - | - | - |
| 1777806316 | 1.67° C | 91% | 1017.5 hPa | 0 mm | - | - | - |
| 1777796718 | 3.89° C | 86% | 1015.8 hPa | 0 mm | - | - | - |
| 1777794917 | 4.44° C | 81% | 1015.5 hPa | 0 mm | - | - | - |
| 1777792517 | 4.44° C | 81% | 1015.1 hPa | 0 mm | - | - | - |
| 1777784117 | 5.56° C | 74% | 1014.5 hPa | 0 mm | - | - | - |
| 1777774517 | 11.67° C | 47% | 1013.3 hPa | 0 mm | - | - | - |
| 1777772717 | 12.78° C | 44% | 1013 hPa | 0 mm | - | - | - |
| 1777772117 | 12.78° C | 44% | 1012.8 hPa | 0 mm | - | - | - |
| 1777767917 | 15° C | 39% | 1011.6 hPa | 0 mm | - | - | - |
| 1777767317 | 15° C | 40% | 1011.3 hPa | 0 mm | - | - | - |
| 1777764917 | 15.56° C | 37% | 1010.7 hPa | 0 mm | - | - | - |
| 1777763116 | 16.11° C | 41% | 1010.2 hPa | 0 mm | - | - | - |
| 1777759516 | 16.11° C | 46% | 1009.6 hPa | 0 mm | - | - | - |
* Rain latest hour (hover to see other rain measurements)
** Current wind speed in m/s (hover to see current wind gust speed)